EW0182 Weather Reports


Display with metric or nautical units.
time (UTC)temp
F
wind
direction
speed
MPH
gust
MPH
rain 1hr
in
rain 24hr
in
rain mn
in
humidity
%
barometer
mb
20260504014503 47 207 0.0 0.0 0.00 0.00 0.00 64 1011.9
20260504013002 49 207 0.0 0.0 0.00 0.00 0.00 61 1011.8
20260504011502 50 217 0.0 0.0 0.00 0.00 0.00 58 1011.8
20260504010002 51 138 0.0 0.0 0.00 0.00 0.00 56 1011.9
20260504004622 53 205 0.0 0.0 0.00 0.00 0.00 52 1011.9
20260504003102 54 208 0.0 0.0 0.00 0.00 0.00 49 1011.8
20260504001607 55 205 0.0 0.0 0.00 0.00 0.00 47 1011.9
20260504000107 56 201 0.0 2.0 0.00 0.00 0.00 45 1012.0
20260503234556 56 315 0.0 12.0 0.00 0.00 0.00 45 1012.0
20260503233056 57 234 0.0 0.0 0.00 0.00 0.00 44 1012.0
20260503231557 57 203 0.0 9.0 0.00 0.00 0.00 44 1012.1
20260503230054 57 264 2.0 14.0 0.00 0.00 0.00 44 1012.2
20260503224553 58 238 3.0 13.0 0.00 0.00 0.00 42 1012.2
20260503223052 58 169 1.0 13.0 0.00 0.00 0.00 41 1012.2
20260503221554 58 238 1.0 10.0 0.00 0.00 0.00 41 1012.4
20260503220051 59 136 1.0 12.0 0.00 0.00 0.00 40 1012.4
20260503214548 59 221 3.0 13.0 0.00 0.00 0.00 40 1012.5
20260503213053 59 221 2.0 7.0 0.00 0.00 0.00 41 1012.5
20260503211547 59 228 3.0 11.0 0.00 0.00 0.00 41 1012.4
20260503210047 59 252 3.0 15.0 0.00 0.00 0.00 41 1012.4
20260503210007 59 203 5.0 15.0 0.00 0.00 0.00 41 1012.4
20260503204547 59 302 0.0 13.0 0.00 0.00 0.00 41 1012.4
20260503203045 60 272 4.0 14.0 0.00 0.00 0.00 40 1012.5
20260503201542 60 301 1.0 9.0 0.00 0.00 0.00 39 1012.8
20260503200039 60 252 0.0 6.0 0.00 0.00 0.00 42 1013.0
20260503194542 60 216 1.0 15.0 0.00 0.00 0.00 38 1013.3
20260503193041 60 243 2.0 16.0 0.00 0.00 0.00 40 1013.6
20260503191536 61 288 4.0 13.0 0.00 0.00 0.00 37 1013.8
20260503190043 60 278 5.0 14.0 0.00 0.00 0.00 38 1014.0
20260503184530 61 243 2.0 15.0 0.00 0.00 0.00 38 1014.2
20260503183028 61 283 2.0 14.0 0.00 0.00 0.00 41 1014.3
20260503181526 61 245 2.0 17.0 0.00 0.00 0.00 38 1014.5
20260503180025 61 294 0.0 15.0 0.00 0.00 0.00 42 1014.7
20260503174527 59 309 0.0 19.0 0.00 0.00 0.00 43 1014.8
20260503173021 59 214 1.0 15.0 0.00 0.00 0.00 42 1015.0
20260503171517 59 212 0.0 20.0 0.00 0.00 0.00 45 1015.3
20260503150104 53 276 2.0 18.0 0.00 0.00 0.00 45 1016.7
20260503081526 30 209 0.0 0.0 0.00 0.00 0.00 93 1016.3
20260503071515 31 218 0.0 0.0 0.00 0.00 0.00 91 1016.2
20260503054550 36 218 0.0 0.0 0.00 0.00 0.00 85 1016.4
20260503053049 37 218 0.0 0.0 0.00 0.00 0.00 84 1016.4
20260503051547 38 218 0.0 0.0 0.00 0.00 0.00 85 1016.5
20260503050045 37 215 0.0 0.0 0.00 0.00 0.00 88 1016.5
20260503044547 37 256 0.0 0.0 0.00 0.00 0.00 90 1016.6
20260503043042 36 256 0.0 0.0 0.00 0.00 0.00 90 1016.6
20260503041540 36 256 0.0 0.0 0.00 0.00 0.00 90 1016.7
20260503040037 36 256 0.0 0.0 0.00 0.00 0.00 89 1016.8
20260503034550 36 256 0.0 0.0 0.00 0.00 0.00 88 1016.7
20260503033036 36 256 0.0 0.0 0.00 0.00 0.00 88 1016.8
20260503031535 36 257 0.0 0.0 0.00 0.00 0.00 87 1016.9
20260503030039 36 256 0.0 0.0 0.00 0.00 0.00 87 1016.9
20260503024534 36 256 0.0 0.0 0.00 0.00 0.00 87 1017.0
20260503023033 35 256 0.0 0.0 0.00 0.00 0.00 86 1017.1
20260503021534 36 256 0.0 0.0 0.00 0.00 0.00 84 1017.1
20260503020033 36 257 0.0 0.0 0.00 0.00 0.00 83 1017.0